Time,TemperatureF,DewpointF,PressureIn,WindDirection,WindDirectionDegrees,WindSpeedMPH,WindSpeedGustMPH,Humidity,HourlyPrecipIn,Conditions,Clouds,dailyrainin,SolarRadiationWatts/m^2,SoftwareType,DateUTC
2013-07-25 00:02:00,75.0,42.0,-100.00,NNE,19,14.0,24.0,30,-99.99,,,0.00,0.120000,,2013-07-25 06:02:00,
2013-07-25 00:12:00,75.0,42.0,-100.00,NNE,19,14.0,24.0,30,-99.99,,,0.00,0.120000,,2013-07-25 06:12:00,
2013-07-25 00:42:00,70.0,45.0,-100.00,North,0,14.0,25.0,41,-99.99,,,0.00,0.120000,,2013-07-25 06:42:00,
2013-07-25 00:52:00,70.0,45.0,-100.00,North,0,14.0,25.0,41,-99.99,,,0.00,0.120000,,2013-07-25 06:52:00,
2013-07-25 01:02:00,70.0,45.0,-100.00,North,0,14.0,25.0,41,-99.99,,,0.00,0.120000,,2013-07-25 07:02:00,
2013-07-25 01:11:00,70.0,45.0,-100.00,North,0,14.0,25.0,41,-99.99,,,0.00,0.120000,,2013-07-25 07:11:00,
2013-07-25 01:43:00,66.0,46.0,-100.00,NNW,337,9.0,13.0,47,-99.99,,,0.00,0.120000,,2013-07-25 07:43:00,
2013-07-25 01:53:00,66.0,46.0,-100.00,NNW,337,9.0,13.0,47,-99.99,,,0.00,0.120000,,2013-07-25 07:53:00,
2013-07-25 02:02:00,66.0,46.0,-100.00,NNW,337,9.0,13.0,47,-99.99,,,0.00,0.120000,,2013-07-25 08:02:00,
2013-07-25 02:12:00,66.0,46.0,-100.00,NNW,337,9.0,13.0,47,-99.99,,,0.00,0.120000,,2013-07-25 08:12:00,
2013-07-25 02:44:00,66.0,44.0,-100.00,NNW,337,10.0,15.0,44,-99.99,,,0.00,0.120000,,2013-07-25 08:44:00,
2013-07-25 02:52:00,66.0,44.0,-100.00,NNW,337,10.0,15.0,44,-99.99,,,0.00,0.120000,,2013-07-25 08:52:00,
2013-07-25 03:02:00,66.0,44.0,-100.00,NNW,337,10.0,15.0,44,-99.99,,,0.00,0.120000,,2013-07-25 09:02:00,
2013-07-25 03:12:00,66.0,44.0,-100.00,NNW,337,10.0,15.0,44,-99.99,,,0.00,0.120000,,2013-07-25 09:12:00,
2013-07-25 03:43:00,65.0,44.0,-100.00,NNW,344,7.0,11.0,46,-99.99,,,0.00,0.120000,,2013-07-25 09:43:00,
2013-07-25 03:53:00,65.0,44.0,-100.00,NNW,344,7.0,11.0,46,-99.99,,,0.00,0.120000,,2013-07-25 09:53:00,
2013-07-25 04:02:00,65.0,44.0,-100.00,NNW,344,7.0,11.0,46,-99.99,,,0.00,0.120000,,2013-07-25 10:02:00,
2013-07-25 04:12:00,65.0,44.0,-100.00,NNW,344,7.0,11.0,46,-99.99,,,0.00,0.120000,,2013-07-25 10:12:00,
2013-07-25 04:53:00,59.0,46.0,-100.00,North,355,3.0,5.0,61,-99.99,,,0.00,0.120000,,2013-07-25 10:53:00,
2013-07-25 05:02:00,59.0,46.0,-100.00,North,355,3.0,5.0,61,-99.99,,,0.00,0.120000,,2013-07-25 11:02:00,
2013-07-25 05:12:00,59.0,46.0,-100.00,North,355,3.0,5.0,61,-99.99,,,0.00,0.120000,,2013-07-25 11:12:00,
2013-07-25 05:43:00,52.0,47.0,-100.00,South,174,5.0,7.0,82,-99.99,,,0.00,0.120000,,2013-07-25 11:43:00,
2013-07-25 05:52:00,52.0,47.0,-100.00,South,174,5.0,7.0,82,-99.99,,,0.00,0.120000,,2013-07-25 11:52:00,
2013-07-25 06:02:00,52.0,47.0,-100.00,South,174,5.0,7.0,82,-99.99,,,0.00,0.120000,,2013-07-25 12:02:00,
2013-07-25 06:12:00,52.0,47.0,-100.00,South,174,5.0,7.0,82,-99.99,,,0.00,0.120000,,2013-07-25 12:12:00,
2013-07-25 06:45:00,50.0,46.0,-100.00,SSW,213,4.0,5.0,84,-99.99,,,0.00,6.160000,,2013-07-25 12:45:00,
2013-07-25 06:53:00,50.0,46.0,-100.00,SSW,213,4.0,5.0,84,-99.99,,,0.00,6.160000,,2013-07-25 12:53:00,
2013-07-25 07:02:00,50.0,46.0,-100.00,SSW,213,4.0,5.0,84,-99.99,,,0.00,6.160000,,2013-07-25 13:02:00,
2013-07-25 07:12:00,50.0,46.0,-100.00,SSW,213,4.0,5.0,84,-99.99,,,0.00,6.160000,,2013-07-25 13:12:00,
2013-07-25 07:53:00,53.0,47.0,-100.00,SSW,207,2.0,4.0,79,-99.99,,,0.00,122.730003,,2013-07-25 13:53:00,
2013-07-25 08:02:00,53.0,47.0,-100.00,SSW,207,2.0,4.0,79,-99.99,,,0.00,122.730003,,2013-07-25 14:02:00,
2013-07-25 08:12:00,53.0,47.0,-100.00,SSW,207,2.0,4.0,79,-99.99,,,0.00,122.730003,,2013-07-25 14:12:00,
2013-07-25 08:43:00,61.0,48.0,-100.00,SSE,166,5.0,7.0,64,-99.99,,,0.00,282.529999,,2013-07-25 14:43:00,
2013-07-25 08:53:00,61.0,48.0,-100.00,SSE,166,5.0,7.0,64,-99.99,,,0.00,282.529999,,2013-07-25 14:53:00,
2013-07-25 09:02:00,61.0,48.0,-100.00,SSE,166,5.0,7.0,64,-99.99,,,0.00,282.529999,,2013-07-25 15:02:00,
2013-07-25 09:12:00,61.0,48.0,-100.00,SSE,166,5.0,7.0,64,-99.99,,,0.00,282.529999,,2013-07-25 15:12:00,
2013-07-25 09:43:00,66.0,48.0,-100.00,South,176,4.0,8.0,52,-99.99,,,0.00,475.339996,,2013-07-25 15:43:00,
2013-07-25 09:53:00,66.0,48.0,-100.00,South,176,4.0,8.0,52,-99.99,,,0.00,475.339996,,2013-07-25 15:53:00,
2013-07-25 10:02:00,66.0,48.0,-100.00,South,176,4.0,8.0,52,-99.99,,,0.00,475.339996,,2013-07-25 16:02:00,
2013-07-25 10:12:00,66.0,48.0,-100.00,South,176,4.0,8.0,52,-99.99,,,0.00,475.339996,,2013-07-25 16:12:00,
2013-07-25 10:53:00,70.0,49.0,-100.00,SSE,165,4.0,7.0,48,-99.99,,,0.00,647.109985,,2013-07-25 16:53:00,
2013-07-25 11:02:00,70.0,49.0,-100.00,SSE,165,4.0,7.0,48,-99.99,,,0.00,647.109985,,2013-07-25 17:02:00,
2013-07-25 11:12:00,70.0,49.0,-100.00,SSE,165,4.0,7.0,48,-99.99,,,0.00,647.109985,,2013-07-25 17:12:00,
2013-07-25 11:43:00,75.0,49.0,-100.00,SSE,162,4.0,9.0,39,-99.99,,,0.00,786.109985,,2013-07-25 17:43:00,
2013-07-25 11:53:00,75.0,49.0,-100.00,SSE,162,4.0,9.0,39,-99.99,,,0.00,786.109985,,2013-07-25 17:53:00,
2013-07-25 12:02:00,75.0,49.0,-100.00,SSE,162,4.0,9.0,39,-99.99,,,0.00,786.109985,,2013-07-25 18:02:00,
2013-07-25 12:12:00,75.0,49.0,-100.00,SSE,162,4.0,9.0,39,-99.99,,,0.00,786.109985,,2013-07-25 18:12:00,
2013-07-25 12:43:00,78.0,46.0,-100.00,SSW,192,3.0,7.0,32,-99.99,,,0.00,878.619995,,2013-07-25 18:43:00,
2013-07-25 12:52:00,78.0,46.0,-100.00,SSW,192,3.0,7.0,32,-99.99,,,0.00,878.619995,,2013-07-25 18:52:00,
2013-07-25 13:02:00,78.0,46.0,-100.00,SSW,192,3.0,7.0,32,-99.99,,,0.00,878.619995,,2013-07-25 19:02:00,
2013-07-25 13:12:00,78.0,46.0,-100.00,SSW,192,3.0,7.0,32,-99.99,,,0.00,878.619995,,2013-07-25 19:12:00,
2013-07-25 13:42:00,83.0,46.0,-100.00,East,89,3.0,7.0,28,-99.99,,,0.00,935.570007,,2013-07-25 19:42:00,
2013-07-25 13:53:00,83.0,46.0,-100.00,East,89,3.0,7.0,28,-99.99,,,0.00,935.570007,,2013-07-25 19:53:00,
2013-07-25 14:02:00,83.0,46.0,-100.00,East,89,3.0,7.0,28,-99.99,,,0.00,935.570007,,2013-07-25 20:02:00,
2013-07-25 14:11:00,83.0,46.0,-100.00,East,89,3.0,7.0,28,-99.99,,,0.00,935.570007,,2013-07-25 20:11:00,
2013-07-25 14:43:00,83.0,43.0,-100.00,NNE,21,6.0,9.0,24,-99.99,,,0.00,473.019989,,2013-07-25 20:43:00,
2013-07-25 14:53:00,83.0,43.0,-100.00,NNE,21,6.0,9.0,24,-99.99,,,0.00,473.019989,,2013-07-25 20:53:00,
2013-07-25 15:02:00,83.0,43.0,-100.00,NNE,21,6.0,9.0,24,-99.99,,,0.00,473.019989,,2013-07-25 21:02:00,
2013-07-25 15:12:00,83.0,43.0,-100.00,NNE,21,6.0,9.0,24,-99.99,,,0.00,473.019989,,2013-07-25 21:12:00,
2013-07-25 15:44:00,86.0,38.0,-100.00,NNE,24,6.0,11.0,18,-99.99,,,0.00,737.299988,,2013-07-25 21:44:00,
2013-07-25 15:52:00,86.0,38.0,-100.00,NNE,24,6.0,11.0,18,-99.99,,,0.00,737.299988,,2013-07-25 21:52:00,
2013-07-25 16:12:00,86.0,38.0,-100.00,NNE,24,6.0,11.0,18,-99.99,,,0.00,737.299988,,2013-07-25 22:12:00,
2013-07-25 16:43:00,88.0,39.0,-100.00,NNE,24,6.0,11.0,18,-99.99,,,0.00,873.969971,,2013-07-25 22:43:00,
2013-07-25 16:52:00,88.0,39.0,-100.00,NNE,24,6.0,11.0,18,-99.99,,,0.00,873.969971,,2013-07-25 22:52:00,
2013-07-25 17:02:00,88.0,39.0,-100.00,NNE,24,6.0,11.0,18,-99.99,,,0.00,873.969971,,2013-07-25 23:02:00,
2013-07-25 17:12:00,88.0,39.0,-100.00,NNE,24,6.0,11.0,18,-99.99,,,0.00,873.969971,,2013-07-25 23:12:00,
2013-07-25 17:43:00,87.0,38.0,-100.00,NE,49,4.0,9.0,18,-99.99,,,0.00,607.830017,,2013-07-25 23:43:00,
2013-07-25 17:52:00,87.0,38.0,-100.00,NE,49,4.0,9.0,18,-99.99,,,0.00,607.830017,,2013-07-25 23:52:00,
2013-07-25 18:02:00,87.0,38.0,-100.00,NE,49,4.0,9.0,18,-99.99,,,0.00,607.830017,,2013-07-26 00:02:00,
2013-07-25 18:11:00,87.0,38.0,-100.00,NE,49,4.0,9.0,18,-99.99,,,0.00,607.830017,,2013-07-26 00:11:00,
2013-07-25 18:43:00,88.0,35.0,-100.00,ENE,68,5.0,10.0,15,-99.99,,,0.00,511.829987,,2013-07-26 00:43:00,
2013-07-25 18:52:00,88.0,35.0,-100.00,ENE,68,5.0,10.0,15,-99.99,,,0.00,511.829987,,2013-07-26 00:52:00,
2013-07-25 19:02:00,88.0,35.0,-100.00,ENE,68,5.0,10.0,15,-99.99,,,0.00,511.829987,,2013-07-26 01:02:00,
2013-07-25 19:12:00,88.0,35.0,-100.00,ENE,68,5.0,10.0,15,-99.99,,,0.00,511.829987,,2013-07-26 01:12:00,
2013-07-25 19:43:00,85.0,40.0,-100.00,NNE,26,5.0,9.0,20,-99.99,,,0.00,231.389999,,2013-07-26 01:43:00,
2013-07-25 19:52:00,85.0,40.0,-100.00,NNE,26,5.0,9.0,20,-99.99,,,0.00,231.389999,,2013-07-26 01:52:00,
2013-07-25 20:02:00,85.0,40.0,-100.00,NNE,26,5.0,9.0,20,-99.99,,,0.00,231.389999,,2013-07-26 02:02:00,
2013-07-25 20:12:00,85.0,40.0,-100.00,NNE,26,5.0,9.0,20,-99.99,,,0.00,231.389999,,2013-07-26 02:12:00,
2013-07-25 21:12:00,80.0,32.0,-100.00,NW,318,4.0,7.0,17,-99.99,,,0.00,42.770000,,2013-07-26 03:12:00,
2013-07-25 21:43:00,74.0,35.0,-100.00,NW,316,4.0,6.0,24,-99.99,,,0.00,6.160000,,2013-07-26 03:43:00,
2013-07-25 21:53:00,74.0,35.0,-100.00,NW,316,4.0,6.0,24,-99.99,,,0.00,6.160000,,2013-07-26 03:53:00,
2013-07-25 22:02:00,74.0,35.0,-100.00,NW,316,4.0,6.0,24,-99.99,,,0.00,6.160000,,2013-07-26 04:02:00,
2013-07-25 22:12:00,74.0,35.0,-100.00,NW,316,4.0,6.0,24,-99.99,,,0.00,6.160000,,2013-07-26 04:12:00,
2013-07-25 22:42:00,70.0,37.0,-100.00,NNW,339,6.0,9.0,29,-99.99,,,0.00,0.120000,,2013-07-26 04:42:00,
2013-07-25 22:53:00,70.0,37.0,-100.00,NNW,339,6.0,9.0,29,-99.99,,,0.00,0.120000,,2013-07-26 04:53:00,
2013-07-25 23:02:00,70.0,37.0,-100.00,NNW,339,6.0,9.0,29,-99.99,,,0.00,0.120000,,2013-07-26 05:02:00,
2013-07-25 23:12:00,70.0,37.0,-100.00,NNW,339,6.0,9.0,29,-99.99,,,0.00,0.120000,,2013-07-26 05:12:00,
2013-07-25 23:43:00,72.0,45.0,-100.00,NNW,333,9.0,14.0,38,-99.99,,,0.00,0.120000,,2013-07-26 05:43:00,
2013-07-25 23:52:00,72.0,45.0,-100.00,NNW,333,9.0,14.0,38,-99.99,,,0.00,0.120000,,2013-07-26 05:52:00,